Regional Weather Roundup
Issued by NWS Charleston, SC

Current Version | Previous Version | Graphics & Text | Print | Product List | Glossary On
Versions: 1 2 3 4 5 6 7 8 9 10 11 12 13 14 15 16 17 18 19 20 21 22 23 24 25 26 27 28 29 30 31 32 33 34 35 36 37 38 39 40 41 42 43 44 45 46 47 48 49 50
000
ASUS42 KCHS 262013
RWRCHS

REGIONAL WEATHER ROUNDUP
NATIONAL WEATHER SERVICE CHARLESTON SC
400 PM EDT THU MAY 26 2016

NOTE: "FAIR" INDICATES FEW OR NO CLOUDS BELOW 12,000 FEET WITH NO
SIGNIFICANT WEATHER AND/OR OBSTRUCTIONS TO VISIBILITY.

NOT ALL STATIONS ARE QUALITY CONTROLLED. USE DATA WITH CAUTION...
ESPECIALLY DEWPOINT OBSERVATIONS.

SCZ027-030-031-034>040-042>050-262100-
...SOUTHEAST SOUTH CAROLINA...

CITY           SKY/WX    TMP DP  RH WIND       PRES   REMARKS
N CHARLESTON   FAIR      86  58  38 S13       30.15F
WATERFRONT PRK   N/A     80  65  59 VRB2      30.15R
MOUNT PLEASANT FAIR      82  63  51 S10       30.16F
JOHNS ISLAND   FAIR      82  64  54 SE6       30.17S
PINOPOLIS        N/A    N/A N/A N/A CALM      30.08S
MONCKS CORNER  FAIR      84  54  34 S6        30.13F
SUMMERVILLE    CLOUDY    86  63  45 CALM      30.15F
BEAUFORT MCAS  FAIR      86  60  41 VRB5      30.15F
BEAUFORT ARPT  FAIR      82  59  44 SW7       30.16F
HILTON HEAD IS SUNNY     88  63  42 SE6       30.18F
WALTERBORO     FAIR      86  61  42 S6        30.15F
ALLENDALE      FAIR      86  63  45 S8        30.13F

...SOUTHERN MIDLANDS AND PEE DEE...

CITY           SKY/WX    TMP DP  RH WIND       PRES   REMARKS
GEORGETOWN     NOT AVBL
KINGSTREE      FAIR      84  59  42 S3        30.14S
ORANGEBURG     CLOUDY    86  62  44 SW7       30.13F
BARNWELL       FAIR      90  63  40 CALM      30.13F HX  90
AIKEN          FAIR      86  59  39 SE9       30.15F
MANNING        FAIR      86  61  42 S6        30.13F
COLUMBIA       PTSUNNY   88  60  38 S6        30.11F
SUMTER         FAIR      87  62  43 S6        30.11F
FLORENCE       FAIR      88  61  40 S7        30.13F
MYRTLE BEACH   MOSUNNY   82  63  51 S12       30.18S
N MYRTLE BEACH FAIR      79  67  66 S14       30.16F

$$

GAZ063-065-086>088-099>101-113>116-118-119-134>141-150-262100-
...SOUTHEAST GEORGIA...

CITY           SKY/WX    TMP DP  RH WIND       PRES   REMARKS
SAVANNAH ARPT  FAIR      86  57  37 SE9G21    30.14F
HUNTER AAF     FAIR      84  62  46 SE9       30.13F
FORT STEWART   FAIR      86  61  43 SE6       30.11F
STATESBORO     FAIR      88  65  46 S8        30.13F HX  90
SYLVANIA       FAIR      89  63  41 S6        30.14F
CLAXTON        MOCLDY    86  65  49 E3        30.13F

...CSRA...CENTRAL AND FAR SOUTHEAST GEORGIA...

CITY           SKY/WX    TMP DP  RH WIND       PRES   REMARKS
THOMSON        PTSUNNY   83  68  58 CALM      30.16F
AUGUSTA-BUSH   FAIR      89  60  37 VRB5      30.10F
AUGUSTA-DANIEL PTSUNNY   87  60  40 VRB6      30.12F
SWAINSBORO     FAIR      88  55  33 CALM      30.13F
VIDALIA        FAIR      88  59  37 CALM      30.12F
EASTMAN        FAIR      89  59  35 CALM      30.14F
HAZLEHURST     MOCLDY    87  56  34 CALM      30.11F
ALMA           CLOUDY    84  62  47 E6        30.12F
WAYCROSS       PTSUNNY   84  61  45 SE9       30.12F
JESUP          FAIR      82  59  44 E13       30.13F
BAXLEY         CLOUDY    88  59  37 SE6       30.12F
BRUNSWICK      FAIR      88  54  31 E8        30.16F
SAINT SIMONS   FAIR      81  64  56 SE9       30.16F

$$

SCZ027-028-034-036>038-045-046-048>050-GAZ119-141-262100-
...LAKE AND SUPPLEMENTAL COASTAL OBSERVATIONS...

STATION/POSITION TIME  TEMP    WIND        PRES    WAVE   SWELL
                       AIR SEA DIR/SP/G            HT/PER HT/PER/DIR
                 (UTC) (F)     (DEG/KT/KT) (MB)    (FT/S) (FT/S/D)
WINYAH BAY       NOT AVBL
LAKE MURRAY      1900   86     180/  4/  4 1019.6F
ACE BASIN NERRS  NOT AVBL
FORT PULASKI     1900   81 76  120/  5/  7 1022.3F
SAPELO ISLAND    1900   85     100/  6     1022.0S

$$

ANZ835-935-AMZ111-154-330-350-352-354-370-450-454-472-262100-
...C-MAN AND BUOY OBSERVATIONS...

STATION/POSITION TIME  TEMP    WIND        PRES    WAVE   SWELL
                       AIR SEA DIR/SP/G            HT/PER HT/PER/DIR
                 (UTC) (F)     (DEG/KT/KT) (MB)    (FT/S) (FT/S/D)
BUOY 41004       1950   77 80  110/  4/  6 1021.5F   2/ 7   2/ 7
BUOY 41008       1950   77 79   70/  2/  4 1021.7F   2/ 9   2/100/ 9
FOLLY BEACH CMAN 1900   78     170/  7/  8 1022.0F
CAPERS NEARSHORE 1908   77 78  190/  8/  8 1021.7F
FRIPP NEARSHORE  1908   77 78  200/  4/  6 1021.4S


STATION/POSITION TIME  TEMP    WIND        PRES    WAVE   SWELL
                       AIR SEA DIR/SP/G            HT/PER HT/PER/DIR
                 (UTC) (F)     (DEG/KT/KT) (MB)    (FT/S) (FT/S/D)
5E ST. MARYS GA  NOT AVBL
FRYING PAN BUOY  1900   77 76  210/  4/  6 1022.0F
BUOY 41025       1950   75 73  230/  6/  8 1021.8F   2/ 9   2/140/ 9
CAPE LOOKOUT NC  1900   77     200/ 10/ 13 1021.6F
BUOY 41002       1950   76 78   60/ 14/ 16 1021.4F   3/ 8   2/100/ 8
BUOY 41010       1920   75 79   40/  8/ 10 1019.9F
ST AUGUSTINE FL  2000   77 81   50/ 12/ 13 1021.2F


$$




USA.gov is the U.S. government's official web portal to all federal, state and local government web resources and services.